Zurück zum Katalog

SL-12 R/B(2)

AktivLEO
NORAD 15772·ROCKET BODY·🇷🇺 Russia

Gestartet May 30, 1985 von Baikonur Cosmodrome

Loading…

Nächste Überflüge (nächste 24 Stunden)

TLE

AktuellSource: Space-Track

Epoche: Sep 14, 2026, 10:08 UTC

1 15772U 85042D   26257.42270150 -.00000028  00000-0  86859-5 0  9996
2 15772  71.1081  48.9778 0035619 195.2978 193.8570 14.22020836141221

Verfolge SL-12 R/B(2) in Echtzeit mit AllMySat

Download on the App Store